Location: G�migny
(47.9646°N, 1.6950°E)
Time: 15:12:53
(UTC+00:00)

BREEZE-M DEB (TANK) - Pass Details

Date: 23 October 2019
Orbit: 305 x 13126 km, 49.6° (Epoch: 14 November)

Event Time Altitude Azimuth Distance (km) Brightness Sun altitude
Rises 18:44:10 0° 248° (WSW) 3,721 8.1 -19.6°
Reaches altitude 10° 18:47:42 10° 247° (WSW) 1,955 6.5 -20.2°
Enters shadow 18:50:49 55° 227° (SW) 469 2.6 -20.7°
